[[{"header":{"parameterUnit":"m.s-1","parameterCategory":1,"la1":30.2991,"la2":30.254,"lo1":-89.0895,"lo2":-89.0444,"dy":0.0017,"dx":0.0017,"nx":28,"ny":28,"refTime":"2024-11-23T03:00:00:Z","depth":0,"parameterNumber":2,"parameterNumberName":"U-component_of_WINDS"},"data":[0,0,0,0,0,0,0,0,0,0,0,0,0,0,0,0,0,0,0,0,0,0,0,0,0,0,0,0,0,0,0,0,0,0,0,0,0,0,0,0,0,0,0,0,0,0,0,0,0,0,0,0,0,0,0,0,0,0,1.05,1.05,0,1.0445,1.0445,1.0444,1.0375,1.0374,1.0373,1.0372,1.0317,1.0316,1.0316,0,0,0,0,0,0,0,0,0,0,0,0,0,1.0546,1.0546,1.0501,1.05,1.0499,1.0445,1.0445,1.0444,1.0376,1.0374,1.0373,1.0372,1.0317,1.0316,1.0316,0,0,0,0,0,0,0,0,0,0,0,0,0,1.0512,1.0546,1.0501,1.0459,1.0454,1.0446,1.0445,1.0444,1.0376,1.0374,1.0373,1.0371,1.0317,1.0316,1.0316,1.0344,0,0,1.0314,1.0313,0,0,0,0,0,0,0,0,1.0514,1.0511,1.0465,1.0461,1.0457,1.0415,1.044,1.041,1.0376,1.0406,1.0372,1.037,1.0351,1.0347,1.0341,1.0342,1.0339,1.0313,1.0313,1.0313,1.0313,0,0,0,0,0,0,0,1.0517,1.0513,1.0479,1.0465,1.0459,1.0442,1.0436,1.0434,1.0388,1.0403,1.0398,1.0392,1.0348,1.0342,1.0339,1.0338,1.0314,1.0313,1.0312,1.0312,1.0357,1.0358,0,0,0,0,0,0,1.0525,1.0515,1.048,1.0477,1.0482,1.0443,1.0435,1.043,1.0388,1.038,1.0394,1.0389,1.0343,1.034,1.0337,1.0365,1.0313,1.0312,1.0312,1.0355,1.0357,1.0359,0,0,0,0,0,0,1.0527,1.0523,1.0483,1.0495,1.0488,1.0444,1.0439,1.043,1.0423,1.0381,1.0372,1.0395,1.0342,1.0338,1.0342,1.0362,1.0312,1.0311,1.0353,1.0356,1.0358,1.0423,0,0,0,0,0,0,1.0528,1.0524,1.0534,1.0495,1.0488,1.0489,1.044,1.043,1.0422,1.0416,1.038,1.0373,1.034,1.0343,1.0341,1.036,1.0311,1.0351,1.0354,1.0357,1.0419,1.0427,1.0434,0,0,0,0,0,1.053,1.0556,1.0535,1.0531,1.05,1.0491,1.0486,1.0448,1.0424,1.0434,1.0406,1.0374,1.0361,1.0344,1.0342,1.036,1.035,1.0354,1.0357,1.0415,1.0426,1.0434,0,0,0,0,0,0,1.0599,1.055,1.0527,1.054,1.052,1.0479,1.049,1.0461,1.0447,1.0442,1.0396,1.0388,1.0398,1.038,1.0363,1.0384,1.035,1.0353,1.0395,1.0405,1.0413,1.0416,1.031,0,0,0,0,0,1.0616,1.0612,1.0569,1.0586,1.0577,1.0536,1.053,1.0502,1.048,1.0471,1.0444,1.0423,1.0413,1.0409,1.0398,1.0416,1.0406,1.0428,1.0436,1.0442,1.0445,1.045,1.0459,1.0371,1.0371,1.0371,0,0,1.065,1.0623,1.0624,1.0599,1.058,1.0576,1.0529,1.0528,1.0524,1.0471,1.0472,1.0452,1.0426,1.0436,1.044,1.0421,1.0467,1.0447,1.0452,1.0451,1.0455,1.0463,1.0471,1.0373,1.0373,1.0372,0,0,1.0711,1.0691,1.0701,1.0682,1.0654,1.0626,1.0629,1.0592,1.0575,1.0577,1.0535,1.0531,1.0517,1.0499,1.0488,1.054,1.0509,1.0538,1.0579,1.0585,1.0591,1.0597,1.0614,1.062,1.0542,1.0542,1.0542,0,1.0757,1.075,1.071,1.071,1.07,1.0651,1.0659,1.0644,1.0614,1.0607,1.0588,1.0567,1.0546,1.055,1.0563,1.0557,1.0557,1.0541,1.0594,1.0599,1.0604,1.0619,1.0626,1.0545,1.0545,1.0544,1.0544,0,1.0808,1.0804,1.0815,1.0786,1.0777,1.0782,1.0741,1.0737,1.071,1.0685,1.0685,1.0658,1.064,1.0639,1.0614,1.064,1.0629,1.0602,1.0567,1.0617,1.063,1.0635,1.055,1.0549,1.0548,1.0547,0,0,1.0909,1.0857,1.0861,1.0846,1.0811,1.0807,1.0809,1.0791,1.0787,1.0768,1.0768,1.0756,1.073,1.0718,1.069,1.0696,1.0735,1.0668,1.0666,1.0679,1.0759,1.0778,1.0785,1.0715,1.0716,1.0717,1.0761,0,1.0961,1.0962,1.0925,1.0935,1.093,1.0883,1.0884,1.0862,1.0838,1.083,1.0803,1.0795,1.0763,1.0755,1.0758,1.073,1.0751,1.0727,1.0713,1.0713,1.0719,1.0793,1.0813,1.0855,1.0766,1.0767,1.0767,0,1.1022,1.1005,1.1015,1.0977,1.0973,1.0976,1.0954,1.0948,1.0921,1.0903,1.0889,1.0856,1.0855,1.0823,1.0819,1.0804,1.0796,1.0781,1.0782,1.0777,1.0742,1.0788,1.0868,1.0874,1.0776,1.0775,1.0774,0,1.1092,1.1072,1.1074,1.1064,1.102,1.1022,1.1004,1.0977,1.0967,1.0949,1.0942,1.0925,1.0915,1.0901,1.0865,1.0845,1.0864,1.083,1.0848,1.0849,1.0853,1.0852,1.093,1.0852,1.0852,1.0852,1.0851,0,1.1153,1.116,1.1105,1.1106,1.1112,1.107,1.1077,1.1054,1.103,1.1025,1.0984,1.0981,1.0933,1.0924,1.0896,1.0896,1.0892,1.0877,1.0868,1.0879,1.0881,1.0872,1.0867,1.0853,1.0853,1.0853,1.0852,0,1.1231,1.1195,1.1194,1.1152,1.1142,1.1148,1.1113,1.1112,1.1085,1.108,1.1076,1.1034,1.1021,1.0983,1.0961,1.0942,1.0949,1.0936,1.0958,1.0952,1.0972,1.0969,1.1045,1.1051,1.0971,1.0972,1.0973,0,1.1271,1.1275,1.1234,1.1227,1.1211,1.1202,1.1192,1.115,1.1141,1.111,1.1113,1.1097,1.1081,1.1062,1.103,1.1012,1.0996,1.1024,1.0993,1.1003,1.0993,1.0993,1.0992,1.103,1.1031,1.1032,1.1032,0,1.1344,1.1326,1.1313,1.1293,1.1282,1.1265,1.1245,1.1242,1.1195,1.1187,1.1173,1.1161,1.1137,1.1121,1.1098,1.1079,1.1047,1.1043,1.1045,1.1055,1.1066,1.1058,1.0973,1.1041,1.104,1.1039,1.1039,1.1038,1.1403,1.1403,1.1374,1.136,1.1341,1.1323,1.1319,1.1292,1.1279,1.1256,1.1233,1.1221,1.1193,1.1158,1.1141,1.113,1.1114,1.1119,1.112,1.1121,1.1125,1.107,1.1127,1.1126,1.1126,1.1126,1.1126,0,1.1472,1.145,1.1438,1.1411,1.14,1.1372,1.1348,1.1341,1.1331,1.1307,1.1292,1.1275,1.1259,1.1225,1.1205,1.1203,1.1188,1.1199,1.1197,1.1193,1.1142,1.114,1.1211,1.1211,1.1211,1.1211,1.1211,1.1211,1.1506,1.1505,1.1483,1.1471,1.145,1.1437,1.1426,1.1409,1.1389,1.1372,1.1358,1.1336,1.1307,1.1285,1.1268,1.1258,1.1252,1.1267,1.1252,1.1205,1.1197,1.1189,1.1187,1.1267,1.1267,1.1304,1.1304,1.1304]},{"header":{"parameterUnit":"m.s-1","parameterCategory":1,"la1":30.2991,"la2":30.254,"lo1":-89.0895,"lo2":-89.0444,"dy":0.0017,"dx":0.0017,"nx":28,"ny":28,"refTime":"2024-11-23T03:00:00:Z","depth":0,"parameterNumber":3,"parameterNumberName":"V-component_of_WINDS"},"data":[0,0,0,0,0,0,0,0,0,0,0,0,0,0,0,0,0,0,0,0,0,0,0,0,0,0,0,0,0,0,0,0,0,0,0,0,0,0,0,0,0,0,0,0,0,0,0,0,0,0,0,0,0,0,0,0,0,0,4.9005,4.9007,0,4.9178,4.918,4.9182,4.9171,4.9168,4.9166,4.9164,4.9334,4.9341,4.9348,0,0,0,0,0,0,0,0,0,0,0,0,0,4.8656,4.8662,4.9004,4.9007,4.9009,4.9178,4.918,4.9183,4.9171,4.9168,4.9165,4.9162,4.9332,4.934,4.9348,0,0,0,0,0,0,0,0,0,0,0,0,0,4.8816,4.8664,4.9004,4.9024,4.9027,4.9177,4.918,4.9183,4.9172,4.9168,4.9164,4.9161,4.9329,4.9339,4.9349,4.9489,0,0,4.9381,4.9385,0,0,0,0,0,0,0,0,4.8807,4.8829,4.9019,4.9023,4.9027,4.9149,4.912,4.9286,4.9173,4.9117,4.9163,4.9159,4.9275,4.929,4.933,4.9497,4.9504,4.9382,4.9388,4.9393,4.9396,0,0,0,0,0,0,0,4.8796,4.8821,4.9073,4.9021,4.9027,4.9021,4.904,4.9151,4.9215,4.9121,4.9121,4.9142,4.9277,4.932,4.9334,4.9507,4.9382,4.9391,4.9397,4.9401,4.9794,4.9798,0,0,0,0,0,0,4.8781,4.8812,4.9067,4.9078,4.8906,4.9031,4.9052,4.9114,4.9214,4.9225,4.9145,4.9141,4.9305,4.9322,4.934,4.9508,4.9393,4.9402,4.9408,4.979,4.9795,4.98,0,0,0,0,0,0,4.8774,4.8804,4.906,4.8945,4.8977,4.9041,4.9111,4.9119,4.9163,4.9232,4.9242,4.9179,4.9302,4.9326,4.9452,4.9514,4.9407,4.9416,4.9785,4.9792,4.9797,4.9847,0,0,0,0,0,0,4.8764,4.8802,4.8857,4.8947,4.8984,4.9172,4.9115,4.9125,4.9182,4.9178,4.9266,4.9277,4.9301,4.9437,4.9462,4.9527,4.9424,4.978,4.9788,4.9795,4.984,4.9854,4.9867,0,0,0,0,0,4.8751,4.8863,4.886,4.8891,4.9055,4.9176,4.9196,4.9224,4.9187,4.9242,4.9286,4.9274,4.9504,4.945,4.9479,4.9547,4.9776,4.9786,4.9795,4.9834,4.9852,4.9866,0,0,0,0,0,0,4.8777,4.8875,4.8873,4.9017,4.9089,4.9174,4.9244,4.9242,4.9323,4.9316,4.9345,4.9365,4.9491,4.9532,4.947,4.9686,4.9634,4.965,4.9655,4.9672,4.9685,4.9671,4.9433,0,0,0,0,0,4.88,4.8892,4.8972,4.9092,4.9128,4.918,4.9233,4.9249,4.9322,4.9352,4.9405,4.9475,4.9563,4.962,4.9704,4.9847,4.9864,4.9908,4.9921,4.9931,4.9944,5.0019,5.0039,4.9831,4.9831,4.9831,0,0,4.8847,4.8912,4.8968,4.9098,4.9155,4.9247,4.9205,4.9305,4.9372,4.9366,4.9489,4.953,4.961,4.9745,4.9806,4.9782,5.0005,4.9943,4.9951,4.9958,5.0031,5.0051,5.0068,4.9837,4.9836,4.9835,0,0,4.898,4.904,4.9145,4.9203,4.9291,4.9325,4.935,4.9436,4.9464,4.9588,4.9585,4.9665,4.9816,4.9872,4.9921,5.0075,5.0066,5.0102,5.0169,5.0243,5.0259,5.0274,5.0326,5.0345,5.0114,5.0114,5.0114,0,4.9026,4.9168,4.9199,4.93,4.9355,4.9357,4.9462,4.9516,4.9626,4.9663,4.9635,4.9825,4.9879,5.0025,5.0063,5.0103,5.013,5.0091,5.0255,5.027,5.0284,5.0334,5.0354,5.0118,5.0118,5.0117,5.0117,0,4.922,4.9318,4.9392,4.95,4.9565,4.9667,4.9711,4.9772,4.9782,4.9818,4.9943,5.0008,5.0105,5.0141,5.0151,5.0289,5.0271,5.0249,5.0197,5.0307,5.0354,5.0374,5.0123,5.0122,5.0121,5.012,0,0,4.9372,4.9497,4.9523,4.9571,4.9668,4.9743,4.9844,4.9941,4.9992,5.0068,5.0151,5.028,5.026,5.0315,5.0331,5.0396,5.0511,5.0366,5.0368,5.0388,5.0663,5.0677,5.0699,5.0507,5.051,5.0514,5.0656,0,4.9513,4.9695,4.9725,4.9884,4.9973,4.9975,5.0063,5.013,5.0167,5.0246,5.0285,5.0374,5.0343,5.0376,5.044,5.0483,5.0566,5.0474,5.0581,5.0585,5.0559,5.0725,5.074,5.0871,5.0675,5.0678,5.068,0,4.9701,4.9784,4.9952,5.0035,5.0074,5.0153,5.0243,5.032,5.0395,5.0417,5.0479,5.0487,5.0589,5.0535,5.0675,5.0611,5.0657,5.0685,5.0691,5.07,5.0637,5.0735,5.0914,5.0933,5.071,5.0708,5.0706,0,4.9792,4.9945,5.0065,5.0107,5.0208,5.0263,5.0307,5.0379,5.0435,5.0514,5.055,5.0638,5.0686,5.0754,5.0785,5.0743,5.0922,5.087,5.094,5.0939,5.0975,5.0972,5.1161,5.1009,5.1009,5.1008,5.1008,0,4.9945,5.0047,5.0107,5.0181,5.0294,5.0327,5.0438,5.048,5.0544,5.0624,5.0631,5.0705,5.0743,5.0822,5.0847,5.0957,5.0979,5.0997,5.1002,5.0995,5.0993,5.1024,5.1015,5.1014,5.1013,5.1011,5.1011,0,5.0065,5.011,5.024,5.0326,5.035,5.0429,5.0501,5.0571,5.0607,5.0708,5.0733,5.0789,5.0882,5.0921,5.1035,5.1051,5.1177,5.1177,5.1152,5.1153,5.1219,5.1212,5.1433,5.1462,5.1293,5.1295,5.1296,0,5.0158,5.0237,5.0331,5.0386,5.0432,5.0521,5.0578,5.0614,5.0673,5.0764,5.0823,5.0917,5.0993,5.1142,5.1191,5.1277,5.1277,5.1349,5.129,5.128,5.1275,5.1269,5.1276,5.1358,5.136,5.1362,5.1363,0,5.0317,5.0336,5.042,5.0512,5.0581,5.0655,5.0726,5.077,5.0816,5.0881,5.0978,5.1038,5.1155,5.1247,5.1336,5.1379,5.1377,5.1381,5.1401,5.1394,5.1376,5.1384,5.1179,5.1375,5.1374,5.1373,5.1372,5.1372,5.0425,5.0495,5.0572,5.0665,5.0723,5.0789,5.0859,5.0905,5.0987,5.1086,5.1101,5.1204,5.1275,5.1396,5.1442,5.1521,5.1502,5.1532,5.1539,5.1545,5.1548,5.1366,5.1538,5.1537,5.1537,5.1537,5.1537,0,5.0583,5.0633,5.0719,5.0819,5.0892,5.0888,5.0966,5.1026,5.1117,5.1185,5.1261,5.1371,5.146,5.1517,5.1606,5.1658,5.166,5.168,5.1675,5.1685,5.1561,5.1534,5.1677,5.1677,5.1677,5.1677,5.1677,5.1677,5.0673,5.079,5.0818,5.0962,5.1011,5.1113,5.1158,5.1218,5.1273,5.1396,5.1471,5.1509,5.1571,5.1665,5.1746,5.176,5.1791,5.1813,5.1825,5.1708,5.1693,5.1679,5.1654,5.182,5.182,5.1941,5.1943,5.1943]}]]